| time (UTC) | temp C | wind direction | speed KPH | gust KPH | rain 1hr cm | rain 24hr cm | rain mn cm | humidity % | barometer mb |
| 20260505090316 | 18 | 304 | 3.2 | 9.7 | 0.00 | 0.00 | 0.00 | 44 | 1020.3 |
| 20260505085832 | 18 | 333 | 6.4 | 9.7 | 0.00 | 0.00 | 0.00 | 43 | 1020.4 |
| 20260505085317 | 18 | 221 | 1.6 | 6.4 | 0.00 | 0.00 | 0.00 | 43 | 1020.3 |
| 20260505084824 | 18 | 199 | 1.6 | 4.8 | 0.00 | 0.00 | 0.00 | 43 | 1020.4 |
| 20260505084336 | 18 | 167 | 3.2 | 6.4 | 0.00 | 0.00 | 0.00 | 44 | 1020.4 |
| 20260505083844 | 17 | 301 | 3.2 | 8.0 | 0.00 | 0.00 | 0.00 | 45 | 1020.3 |
| 20260505083316 | 17 | 310 | 3.2 | 8.0 | 0.00 | 0.00 | 0.00 | 45 | 1020.3 |
| 20260505082821 | 17 | 323 | 3.2 | 8.0 | 0.00 | 0.00 | 0.00 | 45 | 1020.4 |
| 20260505082317 | 17 | 318 | 1.6 | 4.8 | 0.00 | 0.00 | 0.00 | 46 | 1020.3 |
| 20260505081850 | 17 | 309 | 1.6 | 8.0 | 0.00 | 0.00 | 0.00 | 46 | 1020.5 |
| 20260505081345 | 17 | 256 | 3.2 | 4.8 | 0.00 | 0.00 | 0.00 | 47 | 1020.4 |
| 20260505080856 | 16 | 308 | 1.6 | 8.0 | 0.00 | 0.00 | 0.00 | 46 | 1020.5 |
| 20260505080318 | 16 | 298 | 3.2 | 8.0 | 0.00 | 0.00 | 0.00 | 46 | 1020.4 |
| 20260505075832 | 16 | 278 | 1.6 | 8.0 | 0.00 | 0.00 | 0.00 | 47 | 1020.5 |
| 20260505075315 | 16 | 339 | 3.2 | 6.4 | 0.00 | 0.00 | 0.00 | 46 | 1020.4 |
| 20260505074836 | 16 | 251 | 1.6 | 4.8 | 0.00 | 0.00 | 0.00 | 46 | 1020.5 |
| 20260505074329 | 16 | 282 | 1.6 | 4.8 | 0.00 | 0.00 | 0.00 | 47 | 1020.5 |
| 20260505073843 | 16 | 284 | 3.2 | 6.4 | 0.00 | 0.00 | 0.00 | 48 | 1020.4 |
| 20260505073320 | 15 | 269 | 3.2 | 6.4 | 0.00 | 0.00 | 0.00 | 48 | 1020.4 |
| 20260505072815 | 15 | 317 | 1.6 | 4.8 | 0.00 | 0.00 | 0.00 | 50 | 1020.5 |
| 20260505072330 | 15 | 297 | 0.0 | 4.8 | 0.00 | 0.00 | 0.00 | 51 | 1020.5 |
| 20260505071833 | 15 | 237 | 3.2 | 4.8 | 0.00 | 0.00 | 0.00 | 52 | 1020.6 |
| 20260505071326 | 15 | 237 | 1.6 | 4.8 | 0.00 | 0.00 | 0.00 | 52 | 1020.6 |
| 20260505070831 | 14 | 246 | 3.2 | 4.8 | 0.00 | 0.00 | 0.00 | 53 | 1020.5 |
| 20260505070325 | 13 | 215 | 3.2 | 4.8 | 0.00 | 0.00 | 0.00 | 55 | 1020.6 |
| 20260505065838 | 13 | 214 | 1.6 | 4.8 | 0.00 | 0.00 | 0.00 | 58 | 1020.6 |
| 20260505065344 | 13 | 213 | 3.2 | 4.8 | 0.00 | 0.00 | 0.00 | 58 | 1020.6 |
| 20260505064858 | 13 | 257 | 1.6 | 6.4 | 0.00 | 0.00 | 0.00 | 59 | 1020.6 |
| 20260505064322 | 13 | 266 | 1.6 | 4.8 | 0.00 | 0.00 | 0.00 | 59 | 1020.5 |
| 20260505063836 | 13 | 265 | 1.6 | 4.8 | 0.00 | 0.00 | 0.00 | 60 | 1020.5 |
| 20260505063338 | 13 | 263 | 1.6 | 4.8 | 0.00 | 0.00 | 0.00 | 60 | 1020.5 |
| 20260505062831 | 12 | 258 | 1.6 | 4.8 | 0.00 | 0.00 | 0.00 | 62 | 1020.4 |
| 20260505062323 | 12 | 237 | 1.6 | 4.8 | 0.00 | 0.00 | 0.00 | 62 | 1020.4 |
| 20260505061838 | 11 | 238 | 1.6 | 4.8 | 0.00 | 0.00 | 0.00 | 63 | 1020.4 |
| 20260505061340 | 11 | 268 | 3.2 | 4.8 | 0.00 | 0.00 | 0.00 | 63 | 1020.4 |
| 20260505060833 | 11 | 273 | 1.6 | 4.8 | 0.00 | 0.00 | 0.00 | 63 | 1020.5 |
| 20260505060316 | 11 | 275 | 1.6 | 4.8 | 0.00 | 0.00 | 0.00 | 64 | 1020.5 |
| 20260505055829 | 11 | 336 | 1.6 | 3.2 | 0.00 | 0.00 | 0.00 | 64 | 1020.6 |
| 20260505055341 | 11 | 350 | 0.0 | 3.2 | 0.00 | 0.00 | 0.00 | 65 | 1020.5 |
| 20260505054819 | 11 | 350 | 0.0 | 1.6 | 0.00 | 0.00 | 0.00 | 65 | 1020.6 |
| 20260505054333 | 10 | 350 | 0.0 | 1.6 | 0.00 | 0.00 | 0.00 | 66 | 1020.5 |
| 20260505053827 | 10 | 350 | 0.0 | 3.2 | 0.00 | 0.00 | 0.00 | 66 | 1020.5 |
| 20260505053330 | 10 | 319 | 1.6 | 4.8 | 0.00 | 0.00 | 0.00 | 67 | 1020.6 |
| 20260505052823 | 10 | 267 | 1.6 | 4.8 | 0.00 | 0.00 | 0.00 | 67 | 1020.4 |
| 20260505052328 | 9 | 266 | 3.2 | 4.8 | 0.00 | 0.00 | 0.00 | 67 | 1020.5 |
| 20260505051822 | 9 | 261 | 1.6 | 4.8 | 0.00 | 0.00 | 0.00 | 66 | 1020.4 |
| 20260505051325 | 9 | 261 | 1.6 | 4.8 | 0.00 | 0.00 | 0.00 | 66 | 1020.5 |
| 20260505050820 | 10 | 113 | 0.0 | 0.0 | 0.00 | 0.00 | 0.00 | 68 | 1020.5 |
| 20260505050334 | 10 | 113 | 0.0 | 1.6 | 0.00 | 0.00 | 0.00 | 68 | 1020.5 |
| 20260505041316 | 8 | 113 | 0.0 | 0.0 | 0.00 | 0.00 | 0.00 | 72 | 1020.3 |
| 20260505040831 | 7 | 113 | 0.0 | 0.0 | 0.00 | 0.00 | 0.00 | 73 | 1020.2 |
| 20260505040343 | 7 | 113 | 0.0 | 0.0 | 0.00 | 0.00 | 0.00 | 73 | 1020.1 |
| 20260505035826 | 7 | 113 | 0.0 | 0.0 | 0.00 | 0.00 | 0.00 | 74 | 1020.1 |
| 20260505035342 | 7 | 113 | 0.0 | 1.6 | 0.00 | 0.00 | 0.00 | 73 | 1020.1 |
| 20260505034826 | 7 | 113 | 0.0 | 3.2 | 0.00 | 0.00 | 0.00 | 73 | 1020.1 |
| 20260505034341 | 7 | 113 | 0.0 | 4.8 | 0.00 | 0.00 | 0.00 | 74 | 1020.2 |
| 20260505033814 | 6 | 113 | 1.6 | 4.8 | 0.00 | 0.00 | 0.00 | 74 | 1020.0 |
| 20260505033320 | 6 | 113 | 3.2 | 3.2 | 0.00 | 0.00 | 0.00 | 75 | 1020.2 |
| 20260505032829 | 6 | 114 | 1.6 | 1.6 | 0.00 | 0.00 | 0.00 | 75 | 1020.2 |
| 20260505032321 | 6 | 114 | 1.6 | 3.2 | 0.00 | 0.00 | 0.00 | 74 | 1020.2 |
| 20260505031826 | 7 | 114 | 1.6 | 3.2 | 0.00 | 0.00 | 0.00 | 73 | 1020.1 |
| 20260505031318 | 7 | 114 | 0.0 | 1.6 | 0.00 | 0.00 | 0.00 | 73 | 1020.1 |
| 20260505030833 | 7 | 114 | 0.0 | 3.2 | 0.00 | 0.00 | 0.00 | 72 | 1020.1 |
| 20260505025832 | 7 | 114 | 0.0 | 3.2 | 0.00 | 0.00 | 0.00 | 72 | 1020.0 |
| 20260505025323 | 7 | 114 | 0.0 | 3.2 | 0.00 | 0.00 | 0.00 | 72 | 1020.0 |
| 20260505024848 | 7 | 114 | 0.0 | 0.0 | 0.00 | 0.00 | 0.00 | 71 | 1020.0 |
| 20260505024320 | 7 | 114 | 0.0 | 0.0 | 0.00 | 0.00 | 0.00 | 71 | 1020.1 |
| 20260505023832 | 7 | 114 | 0.0 | 0.0 | 0.00 | 0.00 | 0.00 | 70 | 1019.9 |
| 20260505023325 | 7 | 114 | 0.0 | 0.0 | 0.00 | 0.00 | 0.00 | 70 | 1019.9 |
| 20260505022832 | 7 | 114 | 0.0 | 1.6 | 0.00 | 0.00 | 0.00 | 70 | 1019.9 |
| 20260505022327 | 7 | 114 | 0.0 | 1.6 | 0.00 | 0.00 | 0.00 | 70 | 1020.0 |
| 20260505021814 | 7 | 114 | 0.0 | 1.6 | 0.00 | 0.00 | 0.00 | 70 | 1020.0 |
| 20260505021324 | 7 | 114 | 0.0 | 3.2 | 0.00 | 0.00 | 0.00 | 70 | 1020.2 |
| 20260505020830 | 7 | 114 | 0.0 | 4.8 | 0.00 | 0.00 | 0.00 | 70 | 1020.2 |
| 20260505020326 | 7 | 114 | 3.2 | 4.8 | 0.00 | 0.00 | 0.00 | 70 | 1020.2 |
| 20260505015818 | 7 | 114 | 0.0 | 0.0 | 0.00 | 0.00 | 0.00 | 70 | 1020.2 |
| 20260505015321 | 7 | 114 | 0.0 | 0.0 | 0.00 | 0.00 | 0.00 | 70 | 1020.1 |
| 20260505014827 | 7 | 114 | 0.0 | 0.0 | 0.00 | 0.00 | 0.00 | 70 | 1020.1 |
| 20260505014320 | 7 | 114 | 0.0 | 0.0 | 0.00 | 0.00 | 0.00 | 70 | 1020.1 |
| 20260505013832 | 7 | 114 | 0.0 | 0.0 | 0.00 | 0.00 | 0.00 | 70 | 1020.0 |
| 20260505013315 | 7 | 114 | 0.0 | 0.0 | 0.00 | 0.00 | 0.00 | 69 | 1020.0 |
| 20260505012832 | 8 | 114 | 0.0 | 0.0 | 0.00 | 0.00 | 0.00 | 69 | 1020.1 |
| 20260505012317 | 8 | 114 | 0.0 | 0.0 | 0.00 | 0.00 | 0.00 | 69 | 1020.0 |
| 20260505011833 | 8 | 114 | 0.0 | 0.0 | 0.00 | 0.00 | 0.00 | 68 | 1020.1 |
| 20260505011318 | 8 | 114 | 0.0 | 3.2 | 0.00 | 0.00 | 0.00 | 68 | 1020.2 |
| 20260505010833 | 8 | 114 | 0.0 | 3.2 | 0.00 | 0.00 | 0.00 | 68 | 1020.1 |
| 20260505010347 | 8 | 114 | 0.0 | 1.6 | 0.00 | 0.00 | 0.00 | 68 | 1020.2 |
| 20260505005840 | 8 | 114 | 0.0 | 1.6 | 0.00 | 0.00 | 0.00 | 68 | 1020.1 |
| 20260505005325 | 8 | 114 | 0.0 | 3.2 | 0.00 | 0.00 | 0.00 | 68 | 1020.1 |
| 20260505004830 | 8 | 114 | 0.0 | 3.2 | 0.00 | 0.00 | 0.00 | 68 | 1020.1 |
| 20260505004314 | 8 | 115 | 0.0 | 1.6 | 0.00 | 0.00 | 0.00 | 67 | 1020.0 |
| 20260505003843 | 8 | 115 | 0.0 | 1.6 | 0.00 | 0.00 | 0.00 | 67 | 1020.1 |
| 20260505003316 | 8 | 115 | 0.0 | 0.0 | 0.00 | 0.00 | 0.00 | 66 | 1020.1 |
| 20260505002821 | 8 | 115 | 0.0 | 1.6 | 0.00 | 0.00 | 0.00 | 66 | 1020.1 |
| 20260505002315 | 9 | 115 | 0.0 | 1.6 | 0.00 | 0.00 | 0.00 | 65 | 1020.1 |
| 20260505001821 | 8 | 115 | 0.0 | 0.0 | 0.00 | 0.00 | 0.00 | 65 | 1020.1 |
| 20260505001333 | 9 | 115 | 0.0 | 0.0 | 0.00 | 0.00 | 0.00 | 65 | 1020.1 |
| 20260505000829 | 9 | 115 | 0.0 | 1.6 | 0.00 | 0.00 | 0.00 | 64 | 1020.3 |
| 20260505000332 | 9 | 115 | 0.0 | 1.6 | 0.00 | 0.00 | 0.00 | 64 | 1020.2 |
| 20260504235825 | 10 | 115 | 0.0 | 1.6 | 0.00 | 0.00 | 0.00 | 63 | 1020.2 |
| 20260504235317 | 9 | 115 | 1.6 | 3.2 | 0.00 | 0.00 | 0.00 | 63 | 1020.2 |
| 20260504234824 | 9 | 115 | 0.0 | 0.0 | 0.00 | 0.00 | 0.00 | 64 | 1020.3 |
| 20260504234330 | 10 | 115 | 0.0 | 1.6 | 0.00 | 0.00 | 0.00 | 63 | 1020.2 |
| 20260504233824 | 10 | 115 | 0.0 | 1.6 | 0.00 | 0.00 | 0.00 | 63 | 1020.3 |
| 20260504233334 | 10 | 115 | 0.0 | 3.2 | 0.00 | 0.00 | 0.00 | 63 | 1020.4 |
| 20260504232848 | 10 | 115 | 1.6 | 3.2 | 0.00 | 0.00 | 0.00 | 63 | 1020.5 |
| 20260504232336 | 10 | 115 | 0.0 | 0.0 | 0.00 | 0.00 | 0.00 | 63 | 1020.5 |
| 20260504231821 | 10 | 115 | 0.0 | 6.4 | 0.00 | 0.00 | 0.00 | 62 | 1020.5 |
| 20260504231336 | 10 | 115 | 3.2 | 6.4 | 0.00 | 0.00 | 0.00 | 62 | 1020.5 |
| 20260504230819 | 10 | 98 | 3.2 | 9.7 | 0.00 | 0.00 | 0.00 | 63 | 1020.5 |
| 20260504230352 | 10 | 110 | 4.8 | 9.7 | 0.00 | 0.00 | 0.00 | 63 | 1020.6 |
| 20260504225822 | 10 | 98 | 3.2 | 9.7 | 0.00 | 0.00 | 0.00 | 64 | 1020.7 |
| 20260504225316 | 9 | 94 | 4.8 | 6.4 | 0.00 | 0.00 | 0.00 | 64 | 1020.7 |
| 20260504224842 | 9 | 113 | 1.6 | 4.8 | 0.00 | 0.00 | 0.00 | 65 | 1020.7 |
| 20260504224327 | 10 | 115 | 3.2 | 4.8 | 0.00 | 0.00 | 0.00 | 64 | 1020.8 |
| 20260504223821 | 9 | 267 | 1.6 | 3.2 | 0.00 | 0.00 | 0.00 | 64 | 1020.8 |
| 20260504223336 | 9 | 267 | 1.6 | 3.2 | 0.00 | 0.00 | 0.00 | 64 | 1020.8 |
| 20260504222821 | 9 | 267 | 0.0 | 4.8 | 0.00 | 0.00 | 0.00 | 64 | 1020.9 |
| 20260504222336 | 10 | 267 | 1.6 | 9.7 | 0.00 | 0.00 | 0.00 | 63 | 1020.9 |
| 20260504221821 | 10 | 261 | 4.8 | 9.7 | 0.00 | 0.00 | 0.00 | 62 | 1020.9 |
| 20260504221315 | 11 | 108 | 3.2 | 4.8 | 0.00 | 0.00 | 0.00 | 58 | 1020.9 |
| 20260504220818 | 11 | 108 | 0.0 | 4.8 | 0.00 | 0.00 | 0.00 | 57 | 1020.8 |
| 20260504220314 | 11 | 108 | 3.2 | 4.8 | 0.00 | 0.00 | 0.00 | 57 | 1020.7 |
| 20260504215840 | 11 | 108 | 1.6 | 4.8 | 0.00 | 0.00 | 0.00 | 58 | 1020.8 |
| 20260504215327 | 11 | 108 | 3.2 | 4.8 | 0.00 | 0.00 | 0.00 | 58 | 1020.8 |
| 20260504214814 | 11 | 107 | 3.2 | 4.8 | 0.00 | 0.00 | 0.00 | 59 | 1021.2 |
| 20260504214349 | 11 | 106 | 3.2 | 4.8 | 0.00 | 0.00 | 0.00 | 60 | 1020.8 |
| 20260504213814 | 11 | 106 | 0.0 | 1.6 | 0.00 | 0.00 | 0.00 | 60 | 1021.0 |
| 20260504213328 | 11 | 106 | 0.0 | 1.6 | 0.00 | 0.00 | 0.00 | 59 | 1021.0 |
| 20260504212844 | 11 | 106 | 1.6 | 1.6 | 0.00 | 0.00 | 0.00 | 58 | 1020.9 |
| 20260504212329 | 11 | 106 | 0.0 | 0.0 | 0.00 | 0.00 | 0.00 | 57 | 1020.8 |
| 20260504211825 | 11 | 106 | 0.0 | 1.6 | 0.00 | 0.00 | 0.00 | 57 | 1020.8 |
| 20260504211340 | 11 | 106 | 0.0 | 3.2 | 0.00 | 0.00 | 0.00 | 57 | 1020.8 |
| 20260504210824 | 11 | 106 | 0.0 | 4.8 | 0.00 | 0.00 | 0.00 | 57 | 1020.9 |
| 20260504210318 | 11 | 106 | 0.0 | 4.8 | 0.00 | 0.00 | 0.00 | 57 | 1020.9 |
| 20260504205834 | 11 | 103 | 1.6 | 3.2 | 0.00 | 0.00 | 0.00 | 58 | 1020.9 |
| 20260504205318 | 11 | 103 | 1.6 | 4.8 | 0.00 | 0.00 | 0.00 | 58 | 1020.9 |
| 20260504204849 | 11 | 103 | 3.2 | 4.8 | 0.00 | 0.00 | 0.00 | 58 | 1020.9 |
| 20260504204333 | 11 | 104 | 1.6 | 3.2 | 0.00 | 0.00 | 0.00 | 58 | 1020.9 |
| 20260504203829 | 11 | 103 | 1.6 | 3.2 | 0.00 | 0.00 | 0.00 | 59 | 1020.8 |
| 20260504203316 | 11 | 103 | 1.6 | 3.2 | 0.00 | 0.00 | 0.00 | 58 | 1020.9 |
| 20260504202850 | 11 | 103 | 1.6 | 3.2 | 0.00 | 0.00 | 0.00 | 59 | 1020.9 |
| 20260504202314 | 11 | 103 | 0.0 | 3.2 | 0.00 | 0.00 | 0.00 | 59 | 1020.9 |
| 20260504201830 | 12 | 103 | 1.6 | 3.2 | 0.00 | 0.00 | 0.00 | 57 | 1020.8 |
| 20260504201324 | 12 | 103 | 0.0 | 0.0 | 0.00 | 0.00 | 0.00 | 55 | 1020.8 |
| 20260504200830 | 12 | 103 | 0.0 | 0.0 | 0.00 | 0.00 | 0.00 | 55 | 1020.8 |
| 20260504200322 | 13 | 103 | 0.0 | 1.6 | 0.00 | 0.00 | 0.00 | 53 | 1020.8 |
| 20260504195828 | 13 | 103 | 0.0 | 3.2 | 0.00 | 0.00 | 0.00 | 52 | 1020.8 |
| 20260504195323 | 13 | 103 | 0.0 | 1.6 | 0.00 | 0.00 | 0.00 | 52 | 1020.8 |
| 20260504194829 | 13 | 103 | 0.0 | 1.6 | 0.00 | 0.00 | 0.00 | 52 | 1020.7 |
| 20260504194315 | 13 | 103 | 1.6 | 1.6 | 0.00 | 0.00 | 0.00 | 51 | 1020.8 |
| 20260504193828 | 13 | 103 | 0.0 | 1.6 | 0.00 | 0.00 | 0.00 | 51 | 1020.7 |
| 20260504193342 | 13 | 103 | 0.0 | 3.2 | 0.00 | 0.00 | 0.00 | 51 | 1020.7 |
| 20260504192835 | 13 | 103 | 0.0 | 4.8 | 0.00 | 0.00 | 0.00 | 51 | 1020.7 |
| 20260504192321 | 13 | 103 | 1.6 | 4.8 | 0.00 | 0.00 | 0.00 | 51 | 1020.7 |
| 20260504191850 | 13 | 103 | 1.6 | 3.2 | 0.00 | 0.00 | 0.00 | 51 | 1020.7 |
| 20260504191315 | 13 | 103 | 0.0 | 3.2 | 0.00 | 0.00 | 0.00 | 51 | 1020.7 |
| 20260504190830 | 13 | 103 | 0.0 | 3.2 | 0.00 | 0.00 | 0.00 | 51 | 1020.8 |
| 20260504190324 | 13 | 103 | 1.6 | 3.2 | 0.00 | 0.00 | 0.00 | 51 | 1020.6 |
| 20260504185816 | 13 | 103 | 0.0 | 3.2 | 0.00 | 0.00 | 0.00 | 50 | 1020.6 |
| 20260504185322 | 13 | 103 | 0.0 | 3.2 | 0.00 | 0.00 | 0.00 | 50 | 1020.7 |
| 20260504184828 | 13 | 103 | 0.0 | 1.6 | 0.00 | 0.00 | 0.00 | 50 | 1020.7 |
| 20260504184322 | 14 | 103 | 0.0 | 1.6 | 0.00 | 0.00 | 0.00 | 50 | 1020.5 |
| 20260504183836 | 14 | 103 | 0.0 | 4.8 | 0.00 | 0.00 | 0.00 | 50 | 1020.5 |
| 20260504183320 | 14 | 103 | 0.0 | 4.8 | 0.00 | 0.00 | 0.00 | 49 | 1020.4 |
| 20260504182815 | 15 | 111 | 1.6 | 4.8 | 0.00 | 0.00 | 0.00 | 48 | 1020.2 |
| 20260504182327 | 15 | 115 | 1.6 | 3.2 | 0.00 | 0.00 | 0.00 | 47 | 1020.2 |
| 20260504181841 | 15 | 115 | 1.6 | 4.8 | 0.00 | 0.00 | 0.00 | 47 | 1020.3 |
| 20260504181347 | 15 | 115 | 3.2 | 6.4 | 0.00 | 0.00 | 0.00 | 47 | 1020.1 |
| 20260504180822 | 15 | 111 | 3.2 | 9.7 | 0.00 | 0.00 | 0.00 | 47 | 1020.1 |
| 20260504180324 | 16 | 111 | 3.2 | 9.7 | 0.00 | 0.00 | 0.00 | 46 | 1020.1 |
| 20260504175819 | 16 | 113 | 3.2 | 6.4 | 0.00 | 0.00 | 0.00 | 45 | 1020.1 |
| 20260504175334 | 16 | 107 | 3.2 | 4.8 | 0.00 | 0.00 | 0.00 | 43 | 1020.1 |
| 20260504174831 | 17 | 113 | 3.2 | 4.8 | 0.00 | 0.00 | 0.00 | 42 | 1020.0 |
| 20260504174324 | 17 | 110 | 3.2 | 6.4 | 0.00 | 0.00 | 0.00 | 41 | 1020.0 |
| 20260504173819 | 17 | 107 | 4.8 | 9.7 | 0.00 | 0.00 | 0.00 | 40 | 1019.8 |
| 20260504173333 | 17 | 107 | 4.8 | 9.7 | 0.00 | 0.00 | 0.00 | 40 | 1019.9 |
| 20260504172816 | 18 | 101 | 3.2 | 6.4 | 0.00 | 0.00 | 0.00 | 40 | 1019.9 |
| 20260504172330 | 18 | 103 | 4.8 | 9.7 | 0.00 | 0.00 | 0.00 | 39 | 1019.7 |
| 20260504171814 | 18 | 107 | 4.8 | 6.4 | 0.00 | 0.00 | 0.00 | 39 | 1019.7 |
| 20260504171328 | 18 | 101 | 4.8 | 9.7 | 0.00 | 0.00 | 0.00 | 38 | 1019.7 |
| 20260504170823 | 18 | 92 | 4.8 | 12.9 | 0.00 | 0.00 | 0.00 | 37 | 1019.7 |
| 20260504170337 | 18 | 77 | 6.4 | 12.9 | 0.00 | 0.00 | 0.00 | 37 | 1019.6 |
| 20260504160356 | 19 | 30 | 4.8 | 12.9 | 0.00 | 0.00 | 0.00 | 36 | 1019.6 |
| 20260504150847 | 19 | 117 | 8.0 | 19.3 | 0.00 | 0.00 | 0.00 | 34 | 1020.0 |
| 20260504150332 | 19 | 100 | 12.9 | 19.3 | 0.00 | 0.00 | 0.00 | 35 | 1019.9 |
| 20260504141325 | 19 | 84 | 6.4 | 22.5 | 0.00 | 0.00 | 0.00 | 34 | 1020.2 |
| 20260504140819 | 19 | 63 | 12.9 | 22.5 | 0.00 | 0.00 | 0.00 | 32 | 1020.2 |
| 20260504140332 | 19 | 71 | 9.7 | 20.9 | 0.00 | 0.00 | 0.00 | 31 | 1020.3 |
| 20260504130322 | 18 | 51 | 8.0 | 19.3 | 0.00 | 0.00 | 0.00 | 38 | 1020.5 |
| 20260504110339 | 18 | 73 | 9.7 | 14.5 | 0.00 | 0.00 | 0.00 | 41 | 1021.3 |
| 20260504100326 | 15 | 302 | 8.0 | 17.7 | 0.00 | 0.00 | 0.00 | 45 | 1021.9 |